Change the Weather History Date:

Tuesday, November 22, 2011

  Actual Average (KLJF) Record (KLJF)
Temperature  
Mean Temperature 34 °F -  
Max Temperature 39 °F 35 °F 55 °F (1998)
Min Temperature 30 °F 20 °F 1 °F (1996)
Degree Days  
Heating Degree Days 30    
Moisture  
Dew Point 34 °F    
Average Humidity 97    
Maximum Humidity 100    
Minimum Humidity 87    
Precipitation  
Precipitation 0.00 in - - ()
Sea Level Pressure  
Sea Level Pressure 30.10 in    
Wind  
Wind Speed 7 mph (SE)    
Max Wind Speed 13 mph    
Max Gust Speed -    
Visibility 4 miles    
Events      
Averages and records for this station are not official NWS values.
T = Trace of Precipitation, MM = Missing Value Source: NWS Daily Summary

Daily Weather History Graph

Daily Weather History Graph

Search for Another Location

Airport or City:

Trip Planner

Search our weather history database for the weather conditions in past years. The results will help you decide how hot, cold, wet, or windy it might be!

Date:

Astronomy

Nov. 22, 2011 Rise Set
Actual Time 7:27 AM CST 4:45 PM CST
Civil Twilight 6:55 AM CST 5:17 PM CST
Nautical Twilight 6:18 AM CST 5:53 PM CST
Astronomical Twilight 5:43 AM CST 6:28 PM CST
Moon 4:13 AM CST (11/22) 2:49 PM CST (11/22)
Length of Visible Light 10h 22m
Length of Day
9h 17m
Waning Crescent, 9% of the Moon is Illuminated
Nov 22
Waning Crescent
Nov 25
New
Dec 2
First Quarter
Dec 10
Full
Dec 17
Last Quarter

Hourly Weather History & Observations

Time (CST) Temp. Windchill Dew Point Humidity Pressure Visibility Wind Dir Wind Speed Gust Speed Precip Events Conditions
12:15 AM 33.8 °F 26.4 °F 32.0 °F 93% 30.19 in 5.0 mi SE 9.2 mph - N/A   Overcast
12:34 AM 33.8 °F 25.8 °F 32.0 °F 93% 30.19 in 5.0 mi SE 10.4 mph - N/A   Overcast
12:55 AM 33.8 °F 26.4 °F 32.0 °F 93% 30.19 in 5.0 mi ESE 9.2 mph - N/A   Overcast
1:15 AM 33.8 °F 25.3 °F 32.0 °F 93% 30.19 in 5.0 mi SE 11.5 mph - N/A   Overcast
1:35 AM 33.8 °F 25.8 °F 33.8 °F 100% 30.18 in 5.0 mi SE 10.4 mph - N/A   Overcast
1:55 AM 33.8 °F 24.8 °F 33.8 °F 100% 30.18 in 5.0 mi ESE 12.7 mph - N/A   Overcast
2:15 AM 33.8 °F 25.8 °F 33.8 °F 100% 30.18 in 4.0 mi ESE 10.4 mph - N/A   Overcast
2:34 AM 33.8 °F 25.3 °F 33.8 °F 100% 30.18 in 3.0 mi SE 11.5 mph - N/A   Mostly Cloudy
2:55 AM 33.8 °F 25.8 °F 33.8 °F 100% 30.17 in 3.0 mi ESE 10.4 mph - N/A   Overcast
3:15 AM 33.8 °F 26.4 °F 33.8 °F 100% 30.17 in 3.0 mi SE 9.2 mph - N/A   Overcast
3:35 AM 33.8 °F 26.4 °F 33.8 °F 100% 30.16 in 3.0 mi ESE 9.2 mph - N/A   Overcast
3:55 AM 33.8 °F 27.0 °F 33.8 °F 100% 30.15 in 4.0 mi ESE 8.1 mph - N/A   Overcast
4:15 AM 33.8 °F 26.4 °F 33.8 °F 100% 30.14 in 4.0 mi ESE 9.2 mph - N/A   Overcast
4:35 AM 33.8 °F 27.0 °F 33.8 °F 100% 30.14 in 4.0 mi SE 8.1 mph - N/A   Overcast
4:55 AM 33.8 °F 27.0 °F 33.8 °F 100% 30.14 in 4.0 mi ESE 8.1 mph - N/A   Overcast
5:15 AM 33.8 °F 27.7 °F 33.8 °F 100% 30.13 in 4.0 mi ESE 6.9 mph - N/A   Overcast
5:55 AM 33.8 °F 27.0 °F 33.8 °F 100% 30.11 in 4.0 mi ESE 8.1 mph - N/A   Overcast
6:15 AM 33.8 °F 27.0 °F 33.8 °F 100% 30.11 in 4.0 mi ESE 8.1 mph - N/A   Overcast
6:35 AM 33.8 °F 27.7 °F 33.8 °F 100% 30.11 in 5.0 mi ESE 6.9 mph - N/A   Overcast
6:55 AM 33.8 °F 27.7 °F 33.8 °F 100% 30.11 in 5.0 mi ESE 6.9 mph - N/A   Overcast
7:15 AM 33.8 °F 27.7 °F 33.8 °F 100% 30.10 in 5.0 mi SE 6.9 mph - N/A   Overcast
7:35 AM 33.8 °F 27.0 °F 33.8 °F 100% 30.10 in 4.0 mi SE 8.1 mph - N/A   Overcast
7:55 AM 33.8 °F 28.6 °F 33.8 °F 100% 30.12 in 4.0 mi SE 5.8 mph - N/A   Overcast
8:15 AM 33.8 °F 27.7 °F 33.8 °F 100% 30.11 in 4.0 mi SE 6.9 mph - N/A   Overcast
8:35 AM 33.8 °F 27.7 °F 33.8 °F 100% 30.11 in 4.0 mi SE 6.9 mph - N/A   Overcast
9:15 AM 33.8 °F 26.4 °F 33.8 °F 100% 30.10 in 4.0 mi SE 9.2 mph - N/A   Overcast
9:35 AM 33.8 °F 27.0 °F 33.8 °F 100% 30.10 in 4.0 mi SE 8.1 mph - N/A   Overcast
9:55 AM 33.8 °F 25.8 °F 33.8 °F 100% 30.10 in 4.0 mi SE 10.4 mph - N/A   Overcast
10:15 AM 35.6 °F 29.2 °F 33.8 °F 93% 30.11 in 4.0 mi SSE 8.1 mph - N/A   Overcast
10:35 AM 35.6 °F 29.9 °F 33.8 °F 93% 30.11 in 4.0 mi SSE 6.9 mph - N/A   Overcast
11:35 AM 35.6 °F 30.7 °F 33.8 °F 93% 30.10 in 5.0 mi SSE 5.8 mph - N/A   Overcast
12:15 PM 35.6 °F 28.6 °F 35.6 °F 100% 30.06 in 5.0 mi SSE 9.2 mph - N/A   Overcast
12:35 PM 37.4 °F 30.8 °F 35.6 °F 93% 30.05 in 5.0 mi SSE 9.2 mph - N/A   Overcast
12:55 PM 37.4 °F 32.1 °F 35.6 °F 93% 30.05 in 5.0 mi SSE 6.9 mph - N/A   Overcast
1:35 PM 37.4 °F 34.9 °F 35.6 °F 93% 30.06 in 5.0 mi SSE 3.5 mph - N/A   Overcast
1:55 PM 37.4 °F - 35.6 °F 93% 30.05 in 5.0 mi Calm Calm - N/A   Overcast
2:15 PM 37.4 °F - 35.6 °F 93% 30.05 in 5.0 mi Calm Calm - N/A   Overcast
2:35 PM 37.4 °F - 35.6 °F 93% 30.05 in 5.0 mi Calm Calm - N/A   Overcast
2:55 PM 39.2 °F - 35.6 °F 87% 30.05 in 5.0 mi Calm Calm - N/A   Overcast
3:35 PM 39.2 °F - 35.6 °F 87% 30.05 in 5.0 mi Calm Calm - N/A   Overcast
3:55 PM 39.2 °F - 35.6 °F 87% 30.06 in 5.0 mi Calm Calm - N/A   Overcast
4:15 PM 39.2 °F - 37.4 °F 93% 30.06 in 5.0 mi Calm Calm - N/A   Overcast
4:35 PM 37.4 °F - 35.6 °F 93% 30.06 in 4.0 mi Calm Calm - N/A   Overcast
4:55 PM 37.4 °F - 37.4 °F 100% 30.06 in 4.0 mi Calm Calm - N/A   Overcast
5:35 PM 37.4 °F 34.9 °F 35.6 °F 93% 30.06 in 4.0 mi SSE 3.5 mph - N/A   Overcast
5:55 PM 35.6 °F - 35.6 °F 100% 30.06 in 4.0 mi Calm Calm - N/A   Overcast
6:15 PM 37.4 °F - 35.6 °F 93% 30.07 in 4.0 mi Calm Calm - N/A   Overcast
6:35 PM 37.4 °F - 35.6 °F 93% 30.07 in 4.0 mi Calm Calm - N/A   Overcast
6:55 PM 35.6 °F - 35.6 °F 100% 30.07 in 4.0 mi Calm Calm - N/A   Overcast
7:14 PM 37.4 °F - 35.6 °F 93% 30.07 in 4.0 mi Calm Calm - N/A   Overcast
7:35 PM 35.6 °F - 35.6 °F 100% 30.07 in 5.0 mi Calm Calm - N/A   Overcast
8:14 PM 35.6 °F 32.8 °F 33.8 °F 93% 30.08 in 5.0 mi SSE 3.5 mph - N/A   Clear
8:35 PM 33.8 °F 30.8 °F 33.8 °F 100% 30.08 in 4.0 mi SE 3.5 mph - N/A   Clear
9:15 PM 32.0 °F 27.5 °F 32.0 °F 100% 30.08 in 3.0 mi SSE 4.6 mph - N/A   Clear
9:35 PM 30.2 °F - 30.2 °F 100% 30.08 in 3.0 mi Calm Calm - N/A   Clear
9:55 PM 32.0 °F 28.7 °F 32.0 °F 100% 30.09 in 3.0 mi SSE 3.5 mph - N/A   Clear
10:14 PM 32.0 °F 28.7 °F 32.0 °F 100% 30.09 in 3.0 mi SSE 3.5 mph - N/A   Clear
10:35 PM 32.0 °F - 32.0 °F 100% 30.09 in 3.0 mi Calm Calm - N/A   Clear
10:55 PM 30.2 °F - 30.2 °F 100% 30.09 in 2.0 mi Calm Calm - N/A   Clear
11:15 PM 33.8 °F - 33.8 °F 100% 30.10 in 2.0 mi Calm Calm - N/A   Clear
11:35 PM 32.0 °F - 32.0 °F 100% 30.10 in 2.0 mi Calm Calm - N/A   Clear
11:55 PM 30.2 °F 26.7 °F 30.2 °F 100% 30.10 in 1.8 mi South 3.5 mph - N/A   Clear